sat.trackr.live / text

‹ back to catalog

STARLINK-11261 [DTC]

NORAD 60724 · 2024-152E

PAYLOAD ACTIVE UNKNOWN

§ Identity

Operator
Country
US
Launch date
2024-08-28
Launch site
AFETR
Launch vehicle
Mass (kg)
RCS (m²)

Purposes: comms

External: N2YO · Heavens-Above · Gunter

§ Orbital elements

Epoch: 2026-05-25T03:50:40.900704Z

Period
91.74 min
Inclination
53.1551°
Eccentricity
0.0000816
Mean motion
15.69704418 rev/d
Perigee alt
359.2 km
Apogee alt
360.3 km
Semi-major
6,737.9 km
B*
9.8696e-6
RAAN
99.4334°
Arg perigee
69.1403°
Mean anomaly
290.9702°
Rev number
10,084

§ Raw data

STARLINK-11261 [DTC]1 60724U 24152E   26145.16019561  .00000607  00000+0  98696-5 0  99952 60724  53.1551  99.4334 0000816  69.1403 290.9702 15.69704418100848

JSON: /api/v1/satellites/60724 · /tle

For live sub-satellite position, see the globe view (requires WebGL).

§ Visibility from observer

Set your observer location to see the next 7 days of passes ≥ 10°. The values pass through the URL so the page stays shareable.

No JS? Fill the form by hand. The geolocation button needs JavaScript.